Abilene, TX

4:09 AM CST on November 25, 2017 (GMT -0600)
Abilene Regional

Weather History for KABI - January, 2013

Change the Weather History Date:

Saturday, January 12, 2013

  Actual Average Record
Temperature  
Mean Temperature 46 °F 45 °F  
Max Temperature 61 °F 56 °F 82 °F (2000)
Min Temperature 31 °F 33 °F -1 °F (1973)
Degree Days  
Heating Degree Days 19 20  
Month to date heating degree days 268 250  
Since 1 July heating degree days 1103 1295  
Cooling Degree Days 0 0  
Month to date cooling degree days 0 0  
Year to date cooling degree days 0 0  
Moisture  
Dew Point 30 °F    
Average Humidity 60    
Maximum Humidity 77    
Minimum Humidity 42    
Precipitation  
Precipitation 0.00 in 0.03 in 0.60 in (1960)
Month to date precipitation 1.31 0.35  
Year to date precipitation 1.31 0.35  
Sea Level Pressure  
Sea Level Pressure 29.85 in    
Wind  
Wind Speed 13 mph (North)    
Max Wind Speed 24 mph    
Max Gust Speed 29 mph    
Visibility 10 miles    
Events      
T = Trace of Precipitation, MM = Missing Value Source: NWS Daily Summary

Daily Weather History Graph

Daily Weather History Graph

Search for Another Location

Airport or City:

Trip Planner

Search our weather history database for the weather conditions in past years. The results will help you decide how hot, cold, wet, or windy it might be!

Date:

Astronomy

Jan. 12, 2013 Rise Set
Actual Time 7:40 AM CST 5:53 PM CST
Civil Twilight 7:14 AM CST 6:20 PM CST
Nautical Twilight 6:43 AM CST 6:50 PM CST
Astronomical Twilight 6:14 AM CST 7:20 PM CST
Moon 8:06 AM CST (1/12) 7:17 PM CST (1/12)
Length of Visible Light 11h 06m
Length of Day
10h 12m
New Moon, 1% of the Moon is Illuminated
Jan 12
New Moon
Jan 18
First Quarter
Jan 26
Full
Feb 3
Last Quarter
Feb 10
New

Hourly Weather History & Observations

Time (CST) Temp. Windchill Dew Point Humidity Pressure Visibility Wind Dir Wind Speed Gust Speed Precip Events Conditions
12:52 AM 60.1 °F - 51.1 °F 72% 29.75 in 10.0 mi South 10.4 mph - N/A   Clear
1:52 AM 57.9 °F - 50.0 °F 75% 29.79 in 10.0 mi West 3.5 mph - N/A   Partly Cloudy
2:52 AM 55.9 °F - 46.0 °F 69% 29.81 in 10.0 mi North 12.7 mph 18.4 mph N/A   Clear
3:52 AM 53.1 °F - 37.0 °F 55% 29.81 in 10.0 mi North 10.4 mph - N/A   Mostly Cloudy
4:05 AM 53.6 °F - 35.6 °F 51% 29.84 in 10.0 mi North 12.7 mph - N/A   Overcast
4:52 AM 51.1 °F - 30.0 °F 44% 29.81 in 10.0 mi North 10.4 mph - N/A   Mostly Cloudy
5:52 AM 50.0 °F - 28.9 °F 44% 29.81 in 10.0 mi North 6.9 mph - N/A   Overcast
6:52 AM 48.9 °F - 28.0 °F 44% 29.81 in 10.0 mi North 10.4 mph - N/A   Overcast
7:52 AM 46.9 °F - 27.0 °F 46% 29.82 in 10.0 mi North 10.4 mph - N/A   Overcast
8:52 AM 46.9 °F - 28.0 °F 48% 29.83 in 10.0 mi NNW 12.7 mph - N/A   Overcast
9:52 AM 46.0 °F 41.0 °F 28.9 °F 51% 29.83 in 10.0 mi North 10.4 mph - N/A   Mostly Cloudy
10:52 AM 46.9 °F - 30.0 °F 52% 29.82 in 10.0 mi North 9.2 mph - N/A   Scattered Clouds
11:22 AM 50.0 °F - 30.2 °F 47% 29.82 in 10.0 mi North 9.2 mph - N/A   Mostly Cloudy
12:52 PM 48.0 °F - 30.9 °F 52% 29.77 in 10.0 mi North 17.3 mph - N/A   Overcast
1:52 PM 46.0 °F 38.5 °F 35.1 °F 66% 29.80 in 10.0 mi NNW 19.6 mph 28.8 mph N/A   Overcast
2:52 PM 44.1 °F 35.9 °F 34.0 °F 68% 29.81 in 10.0 mi NNW 19.6 mph - N/A   Overcast
3:52 PM 44.1 °F 37.4 °F 32.0 °F 63% 29.85 in 10.0 mi North 13.8 mph 23.0 mph N/A   Overcast
4:01 PM 44.6 °F 36.9 °F 30.2 °F 57% 29.87 in 10.0 mi North 18.4 mph 23.0 mph N/A   Overcast
4:52 PM 44.1 °F 35.4 °F 30.0 °F 58% 29.86 in 10.0 mi North 21.9 mph 26.5 mph N/A   Mostly Cloudy
5:52 PM 41.0 °F 32.8 °F 28.0 °F 60% 29.90 in 10.0 mi North 16.1 mph - N/A   Clear
6:52 PM 37.9 °F 31.5 °F 26.1 °F 62% 29.93 in 10.0 mi NNE 9.2 mph 17.3 mph N/A   Clear
7:52 PM 36.0 °F 27.5 °F 24.1 °F 62% 29.94 in 10.0 mi North 12.7 mph - N/A   Clear
8:52 PM 33.1 °F 22.2 °F 19.9 °F 59% 29.97 in 10.0 mi North 17.3 mph 23.0 mph N/A   Partly Cloudy
9:52 PM 33.1 °F 23.9 °F 19.0 °F 56% 29.99 in 10.0 mi NNE 12.7 mph 18.4 mph N/A   Overcast
10:52 PM 32.0 °F 21.2 °F 18.0 °F 56% 30.01 in 10.0 mi North 16.1 mph 21.9 mph N/A   Overcast